CW1767 Weather Reports


Display with metric or nautical units.
time (UTC)temp
F
wind
direction
speed
MPH
gust
MPH
rain 1hr
in
rain 24hr
in
rain mn
in
humidity
%
barometer
mb
20260502163042 56 166 0.0 4.0 0.00 0.00 0.00 59 1012.4
20260502161541 55 111 1.0 3.0 0.00 0.00 0.00 60 1012.7
20260502151535 55 126 0.0 3.0 0.00 0.00 0.00 62 1013.0
20260502123012 51 180 0.0 1.0 0.00 0.00 0.00 83 1012.6
20260502121509 50 119 0.0 1.0 0.00 0.00 0.00 85 1012.7
20260502114505 49 129 0.0 1.0 0.00 0.00 0.00 90 1012.8
20260502113012 48 129 0.0 0.0 0.00 0.00 0.00 91 1012.7
20260502111503 47 129 0.0 0.0 0.00 0.00 0.00 90 1012.6
20260502110002 46 129 0.0 0.0 0.00 0.00 0.00 90 1012.6
20260502104502 46 129 0.0 0.0 0.00 0.00 0.00 90 1012.5
20260502103001 46 129 0.0 0.0 0.00 0.00 0.00 90 1012.4
20260502101500 46 129 0.0 0.0 0.00 0.00 0.00 90 1012.1
20260502100116 46 129 0.0 0.0 0.00 0.00 0.00 89 1012.0
20260502080105 47 129 0.0 0.0 0.00 0.00 0.00 87 1011.3
20260502070048 47 129 0.0 0.0 0.00 0.00 0.00 85 1011.4
20260502064546 48 129 0.0 0.0 0.00 0.00 0.00 84 1011.5
20260502063045 48 129 0.0 0.0 0.00 0.00 0.00 84 1011.8
20260502061543 48 129 0.0 0.0 0.00 0.00 0.00 83 1011.9
20260502060041 49 129 0.0 0.0 0.00 0.00 0.00 82 1012.0
20260502054541 48 129 0.0 1.0 0.00 0.00 0.00 83 1012.3
20260502053048 48 129 0.0 1.0 0.00 0.00 0.00 83 1012.5
20260502051546 48 129 0.0 1.0 0.00 0.00 0.00 82 1012.4
20260502050036 49 130 0.0 0.0 0.00 0.00 0.00 82 1012.6
20260502044534 49 130 0.0 1.0 0.00 0.00 0.00 81 1012.6
20260502043033 49 130 0.0 0.0 0.00 0.00 0.00 79 1012.6
20260502041537 49 129 0.0 1.0 0.00 0.00 0.00 79 1012.8
20260502040030 49 130 0.0 0.0 0.00 0.00 0.00 78 1012.7
20260502034532 50 130 0.0 1.0 0.00 0.00 0.00 77 1012.6
20260502033031 50 130 0.0 1.0 0.00 0.00 0.00 76 1012.5
20260502031528 50 67 0.0 1.0 0.00 0.00 0.00 77 1012.2
20260502030027 50 67 0.0 1.0 0.00 0.00 0.00 77 1012.1
20260502024527 50 25 0.0 2.0 0.00 0.00 0.00 77 1012.3
20260502023027 51 27 0.0 2.0 0.00 0.00 0.00 77 1012.6
20260502021526 51 24 0.0 1.0 0.00 0.00 0.00 75 1012.9
20260502020025 51 24 0.0 1.0 0.00 0.00 0.00 74 1013.0
20260502014530 52 22 0.0 1.0 0.00 0.00 0.00 73 1012.9
20260502013024 52 22 0.0 1.0 0.00 0.00 0.00 71 1012.6
20260502011542 53 16 0.0 2.0 0.00 0.00 0.00 72 1012.4
20260502010024 54 11 0.0 3.0 0.00 0.00 0.00 71 1012.4
20260502004530 55 75 0.0 2.0 0.00 0.00 0.00 69 1012.3
20260502003026 56 125 0.0 1.0 0.00 0.00 0.00 66 1012.5
20260502001522 56 124 0.0 1.0 0.00 0.00 0.00 63 1011.9
20260502000021 57 124 0.0 1.0 0.00 0.00 0.00 53 1011.7
20260501234521 58 122 0.0 0.0 0.00 0.00 0.00 48 1011.5
20260501233021 59 123 0.0 0.0 0.00 0.00 0.00 46 1011.5
20260501231533 60 122 0.0 0.0 0.00 0.00 0.00 43 1011.4
20260501230020 60 123 0.0 1.0 0.00 0.00 0.00 39 1011.1
20260501224520 61 96 0.0 1.0 0.00 0.00 0.00 37 1011.1
20260501223018 61 95 0.0 2.0 0.00 0.00 0.00 35 1011.4
20260501221517 62 124 0.0 2.0 0.00 0.00 0.00 34 1011.6
20260501220018 62 19 0.0 2.0 0.00 0.00 0.00 39 1011.6
20260501214516 62 88 0.0 2.0 0.00 0.00 0.00 44 1011.8
20260501213024 62 105 0.0 2.0 0.00 0.00 0.00 44 1011.6
20260501211514 63 121 0.0 1.0 0.00 0.00 0.00 44 1011.6
20260501210013 62 36 0.0 3.0 0.00 0.00 0.00 43 1011.8
20260501204512 63 26 0.0 2.0 0.00 0.00 0.00 45 1012.0
20260501203013 63 117 0.0 2.0 0.00 0.00 0.00 46 1012.0
20260501201511 64 86 0.0 2.0 0.00 0.00 0.00 46 1012.0
20260501200009 64 117 2.0 6.0 0.00 0.00 0.00 44 1012.2
20260501194515 67 103 0.0 3.0 0.00 0.00 0.00 42 1012.3
20260501193019 69 102 0.0 1.0 0.00 0.00 0.00 39 1012.3
20260501191507 70 116 1.0 6.0 0.00 0.00 0.00 34 1012.3
20260501190017 70 101 0.0 1.0 0.00 0.00 0.00 34 1012.5
20260501184505 69 118 0.0 2.0 0.00 0.00 0.00 35 1012.6
20260501183008 70 123 0.0 2.0 0.00 0.00 0.00 32 1012.9
20260501181503 70 67 0.0 2.0 0.00 0.00 0.00 33 1012.9
20260501180003 69 323 0.0 4.0 0.00 0.00 0.00 34 1013.0
20260501174506 69 154 0.0 1.0 0.00 0.00 0.00 37 1013.2
20260501173102 69 101 0.0 4.0 0.00 0.00 0.00 34 1013.3
20260501171557 68 131 0.0 1.0 0.00 0.00 0.00 39 1013.2
20260501170057 66 124 0.0 2.0 0.00 0.00 0.00 37 1013.5
20260501164555 67 104 0.0 1.0 0.00 0.00 0.00 37 1013.6